Preview of NWS' New Version of Forecast
This preview is not operational and should not be used for support decisions.

Regional Weather Roundup (RWR)

Issued by National Weather Service (NWS)

                            
000
ASUS42 KTBW 171718
RWRFL 
FLORIDA REGIONAL WEATHER ROUNDUP
NATIONAL WEATHER SERVICE TAMPA BAY RUSKIN FL
100 PM EDT WED JUL 17 2019

NOTE: "FAIR" INDICATES FEW OR NO CLOUDS BELOW 12,000 FEET WITH NO
SIGNIFICANT WEATHER AND/OR OBSTRUCTIONS TO VISIBILITY.

FLZ001>010-012>015-112-114-115-171800-
PANHANDLE FLORIDA
  
CITY           SKY/WX    TMP DP  RH WIND       PRES   REMARKS
PENSACOLA      PTSUNNY   88  77  69 SE7       30.14F HX 100           
PENSACOLA NAS  FAIR      90  78  68 S12       30.14S HX 104           
MILTON NAS     FAIR      90  73  57 CALM      30.14F HX  98           
CRESTVIEW      FAIR      92  72  51 NW10      30.16F HX  99           
DUKE FIELD     FAIR      90  73  56 NW3       30.14F HX  98           
VALPARAISO     PTSUNNY   91  76  62 S7        30.13F HX 102           
MARY ESTHER    MOSUNNY   90  76  62 SW8       30.13S HX 102           
TRI COUNTY     FAIR      91  76  61 VRB3      30.15F HX 103           
PANAMA CITY    PTSUNNY   92  74  55 VRB3      30.13F HX 101           
TYNDALL AFB    FAIR      90  76  64 SW7       30.13F HX 101           
APALACHICOLA   FAIR      90  77  65 S9        30.14S HX 103           

STATION/POSITION SKY/WX   TEMP    WIND        PRES    WAVE   SWELL
                          AIR SEA DIR/SP/G            HT/PER HT/PER
                          (F)     (DEG/KT/KT) (MB)    (FT/S) (FT/S)
30.1N   87.6W              84 86  260/  2/  4 1021.1
29.2N   88.2W              85 85   60/  2/  4 1021.1
28.8N   86.0W              86 86  160/  4/  6 1021.1S   1/ 6   2/ 6
PANAMA CITY BEAC           85 87  250/  6/  7 1021.3F
TOWER C                    85        CALM     1021.1F
28.5N   84.5W              86      40/  2/  6 1021.4R   1/ 6   2/ 6

$$
FLZ011-016>038-118-127-128-134-139-239-171800-
NORTH FLORIDA
  
CITY           SKY/WX    TMP DP  RH WIND       PRES   REMARKS
MARIANNA       FAIR      89  75  63 CALM      30.14F HX  99           
TALLAHASSEE    PTSUNNY   92  76  59 W8        30.14F HX 104           
PERRY          FAIR      93  76  56 N5        30.14F HX 105           
LIVE OAK       MOSUNNY   91  75  59 NW3       30.14S HX 102           
CROSS CITY     PTSUNNY   94  78  58 SE5       30.13F HX 109           
LAKE CITY      FAIR      90  72  55 CALM      30.15S HX  96           
GAINESVILLE    FAIR      91  75  59 CALM      30.16S HX 101           
WILLISTON      FAIR      92  75  57 S5        30.14S HX 103           
PALATKA        FAIR      93  75  55 CALM      30.14F HX 104           
MAYPORT NAS    FAIR      90  78  68 E8        30.13S HX 104           
JACKSONVILLE   PTSUNNY   94  72  48 VRB3      30.12S THUNDER HX 102   
JAX NAS        FAIR      94  72  48 N6        30.13F HX 102           
JAX CECIL      PTSUNNY   99  75  47 VRB5      30.13S HX 111           
FERNANDINA BEA FAIR      92  76  59 E8        30.13S HX 104           
ST AUGUSTINE   FAIR      91  78  65 E8        30.14S HX 106           
PALM COAST     PTSUNNY   93  75  55 VRB3      30.14S HX 104           

STATION/POSITION SKY/WX   TEMP    WIND        PRES    WAVE   SWELL
                          AIR SEA DIR/SP/G            HT/PER HT/PER
                          (F)     (DEG/KT/KT) (MB)    (FT/S) (FT/S)
SHELL POINT      NOT AVBL
KEATON BEACH               86     270/  7/  7 1020.5F
CEDAR KEY                  87     220/  5/  8 1021.0R
FERNANDINA                 95 85  300/  2/  4 1021.1
30.7N   81.3W                 84                N/A     1/ 9
MAYPORT                    87 82   60/  7/  9 1020.9
31.4N   80.9W              85 87  210/  4/  4 1020.1R   1/10   2/10
ST AUGUSTINE               81 80  120/ 10/ 10 1020.7S

$$
FLZ040-043>046-052-053-057-058-063-144-171800-
INTERIOR CENTRAL FLORIDA
  
CITY           SKY/WX    TMP DP  RH WIND       PRES   REMARKS
OCALA          FAIR      93  75  55 SE5       30.15S HX 104           
LEESBURG       FAIR      92  72  51 S5        30.16R HX  99           
SANFORD        FAIR      92  71  50 SE6       30.14F HX  98           
ORLANDO EXEC   PTSUNNY   89  72  56 S5        30.15S HX  96           
ORLANDO INTL   FAIR      90  72  55 VRB3      30.15R HX  97           
KISSIMMEE      FAIR      90  73  57 S8        30.16S HX  98           
WINTER HAVEN   PTSUNNY   91  71  51 S5        30.16S HX  97           
LAKELAND       PTSUNNY   90  73  58 S6        30.16R HX  98           
BARTOW         PTSUNNY   91  73  55 SE8       30.14S HX 100           
SEBRING        FAIR      91  70  50 S6        30.15F HX  96           
OKEECHOBEE     FAIR      88  68  51 S5        30.14S                  

$$
FLZ041-047-054-059-064-141-147-171800-
EAST CENTRAL FLORIDA
  
CITY           SKY/WX    TMP DP  RH WIND       PRES   REMARKS
ORMOND BEACH   MOSUNNY   90  79  70 E8        30.15R HX 105           
DAYTONA BEACH  PTSUNNY   92  81  70 E8        30.14S HX 112           
DELAND         PTSUNNY   90  73  58 S6        30.14S HX  98           
NEW SMYRNA BEA MOSUNNY   90  77  66 E12       30.16S HX 102           
JFK SPACE CTR  MOSUNNY   90  60  36 S5        30.14S                  
TITUSVILLE     PTSUNNY  N/A N/A N/A S6        30.15F                  
CAPE CANAVERAL MOSUNNY   91  50  24 S7        30.13F                  
PATRICK AFB    FAIR      85  79  81 E8        30.14F HX  98           
MELBOURNE      FAIR      88  76  67 E8        30.14S HX  99           
VERO BEACH     PTSUNNY   83  72  69 VRB3      30.16R                  
FT PIERCE      FAIR      86  73  65 SE13      30.15R                  
STUART         PTSUNNY   86  73  66 E9        30.17R                  

STATION/POSITION SKY/WX   TEMP    WIND        PRES    WAVE   SWELL
                          AIR SEA DIR/SP/G            HT/PER HT/PER
                          (F)     (DEG/KT/KT) (MB)    (FT/S) (FT/S)
28.5N   80.2W              81 84  150/  6/  8 1020.9F   1/ 8   2/ 8
28.9N   78.5W              85 86  190/  8/ 10   N/A
TRIDENT PIER               89 84  130/  6/  8 1022.7
28.4N   80.5W                 84                N/A     1/ 8
27.5N   80.2W                 83                N/A     1/10

$$
FLZ050-056-061-142-242-148-248-149-249-151-251-155-255-
160-260-171800-
WEST CENTRAL FLORIDA
  
CITY           SKY/WX    TMP DP  RH WIND       PRES   REMARKS
CRYSTAL RIVER  FAIR      90  77  66 W7        30.14S HX 102           
INVERNESS      PTSUNNY   91  77  62 CALM      30.15S HX 105           
BROOKSVILLE    FAIR      92  76  59 CALM      30.16R HX 104           
CLEARWATER AIR CLOUDY    84  73  70 W7        30.16R                  
ST PETE CLEARW CLOUDY    86  73  65 W8        30.15R                  
TAMPA INTL     FAIR      89  75  63 SW8       30.15S HX  99           
TAMPA EXEC     CLOUDY    90  75  62 CALM      30.15S HX 100           
PLANT CITY     PTSUNNY  N/A N/A N/A MISG      30.17S                  
MACDILL AFB    FAIR      89  77  66 SW6       30.15S HX 101           
PETER O KNIGHT PTSUNNY   90  79  70 SW6       30.15S HX 105           
ST PETERSBURG  FAIR      89  73  59 W7        30.13S HX  97           
SARASOTA       FAIR      89  76  65 SW12      30.13S HX 100           
VENICE         FAIR      90  77  66 SW10      30.15S HX 102           

STATION/POSITION SKY/WX   TEMP    WIND        PRES    WAVE   SWELL
                          AIR SEA DIR/SP/G            HT/PER HT/PER
                          (F)     (DEG/KT/KT) (MB)    (FT/S) (FT/S)
27.3N   84.2W                 87                N/A     1/ 8
CLEARWATER BEACH           84 88  200/ 11/ 12 1021.2R
MIDDLE TAMPA BAY           84     280/  8/  8 1021.1
VENICE                     85 85  210/  8/  9 1020.7S

$$
FLZ066-069-070-075>078-162-262-165-265-171800-
SOUTHWEST FLORIDA AND KEYS
  
CITY           SKY/WX    TMP DP  RH WIND       PRES   REMARKS
PUNTA GORDA    FAIR      90  70  51 SE6       30.15S HX  95           
FT MYERS       FAIR      89  71  55 S6        30.12F HX  95           
SOUTHWEST INTL FAIR      91  73  55 E8        30.13F HX  99           
NAPLES         MOSUNNY  N/A N/A N/A SE9       30.14S                  
MARCO ISLAND   FAIR      92  72  51 MISG      30.13F HX  99           
IMMOKALEE      FAIR      93  73  52 VRB5      30.11F HX 102           
MARATHON       FAIR      92  76  59 SE9       30.11F HX 104           
KEY WEST NAS   FAIR      92  76  59 E13       30.11S HX 104           
KEY WEST INTL  FAIR      90  76  63 E10       30.12S HX 101           

STATION/POSITION SKY/WX   TEMP    WIND        PRES    WAVE   SWELL
                          AIR SEA DIR/SP/G            HT/PER HT/PER
                          (F)     (DEG/KT/KT) (MB)    (FT/S) (FT/S)
NAPLES                     89 87              1020.2
26.0N   85.6W              85 85  120/  8/ 10 1020.6R   2/ 5   2/ 5
DRY TORTUGAS               86     100/ 11/ 12 1019.9F
SAND KEY                   85     100/ 10/ 13 1018.6
SOMBRERO KEY               85     110/ 10/ 12 1020.0
LONG KEY                   86                 1019.1

$$
FLZ067-068-071>074-168-172>174-171800-
SOUTHEAST FLORIDA 
  
CITY           SKY/WX    TMP DP  RH WIND       PRES   REMARKS
W PALM BEACH   PTSUNNY   91  71  51 E14       30.14S HX  97           
BOCA RATON     MOSUNNY   91  73  55 SE12      30.13F HX 100           
FT LAUDER-EXEC FAIR      92  73  53 SE12      30.12F HX 100           
FT LAUDERDALE  FAIR      89  76  65 E14       30.12F HX 100           
POMPANO BEACH  FAIR      91  71  51 SE9       30.13F HX  97           
PEMBROKE PINES FAIR      92  71  50 SE12G18   30.13F HX  98           
OPA LOCKA      FAIR      91  75  59 SE15      30.12F HX 101           
MIAMI          FAIR      92  73  53 E10G21    30.12F HX 100           
WEST KENDALL   FAIR      91  75  59 SE8       30.12F HX 101           
HOMESTEAD      FAIR      89  75  62 E12       30.11F HX  99           

STATION/POSITION SKY/WX   TEMP    WIND        PRES    WAVE   SWELL
                          AIR SEA DIR/SP/G            HT/PER HT/PER
                          (F)     (DEG/KT/KT) (MB)    (FT/S) (FT/S)
PORT EVERGLADES            90     120/  4/  8 1020.3
VIRGINIA KEY               86 88   80/  8/ 11 1020.0F
LAKE WORTH                 84 86  130/  9